RADUGA 2 [-]

Last updated on July 6, 2021, 3:35 p.m. UTC

1 09416U 76092A   21186.88974214 -.00000100  00000-0  00000-0 0  9997
2 09416   8.0467 295.2014 0025304 347.2302  40.6494  1.00246436111225
UTC
Height (km)
Latitude
Longitude
Inclination
Orbital Period
UTC large
Height (km)
Speed (km/s)
/
Latitude / Longitude
Inclination (degrees)
Orbital Period (minutes)
Azimuth
Elevation
Range (km)
Doppler Factor
iOS Compass Heading
iOS Angle